Regional Weather Roundup
Issued by NWS Grand Forks, ND

Home | Current Version | Previous Version | Graphics & Text | Print | Product List | Glossary On
Versions: 1 2 3 4 5 6 7 8 9 10 11 12 13 14 15 16 17 18 19 20 21 22 23 24 25 26 27 28 29 30 31 32 33 34 35 36 37 38 39 40 41 42 43 44 45 46 47 48 49 50
000
ASUS43 KFGF 102110
RWRFGF
PRAIRIE TO PINES  WEATHER ROUNDUP
NATIONAL WEATHER SERVICE EASTERN NORTH DAKOTA/GRAND FORKS ND
300 PM CST WED FEB 10 2016

 **SATELLITE DATA USED TO AUGMENT SKY COVER AT AUTOMATED STATIONS**
 *****  WEATHER ACROSS EASTERN NORTH DAKOTA  *****

CITY           SKY/WX    TMP DP  RH WIND       PRES   REMARKS
GRAND FORKS    CLOUDY    10   0  63 NE9       30.21R WCI  -3
GRAND FRKS AFB CLOUDY     9  -1  63 N8        30.20R WCI  -3
DEVILS LAKE    FLURRIES   8   2  76 E9        30.14R WCI  -5
FARGO          CLOUDY    14   1  56 NE8       30.15R WCI   3
WAHPETON ARPT  CLOUDY    14   3  62 NE5       30.13R WCI   6
$$

 ***** WEATHER ACROSS CENTRAL AND WESTERN NORTH DAKOTA  *****

CITY           SKY/WX    TMP DP  RH WIND       PRES   REMARKS
BISMARCK       CLOUDY    25  15  66 NE9       30.04R WCI  15
MINOT          CLOUDY    17   7  64 N8        30.10R WCI   7
JAMESTOWN      LGT SNOW   9   5  84 E9        30.09R FOG     WCI  -4
MINOT AFB      FLURRIES  14   9  79 N7        30.10R WCI   4
GARRISON         N/A     20  15  81 N9        30.05R WCI   9
WILLISTON      CLOUDY    31  24  75 N10       30.09R WCI  22
DICKINSON      CLOUDY    34  27  75 N15       29.99R WCI  24
HETTINGER      CLOUDY    46  31  55 N20       29.98R
$$

 *****  OTHER AIRPORT OBSERVATIONS IN OUR AREA  *****

CITY           SKY/WX    TMP DP  RH WIND       PRES   REMARKS
WALHALLA       FAIR       7   1  78 NE6       30.22F WCI  -3
GRAFTON AIRPOR CLOUDY     7   0  72 NE8       30.25R WCI  -6
VALLEY CITY AR FLURRIES   9   5  85 NE12      30.11R WCI  -6
CANDO          NOT AVBL
CAVALIER APRT  FAIR       7   0  72 N8        30.24R WCI  -6
GWINNER        CLOUDY    12   9  85 E13       30.09R WCI  -3
ROLLA          FAIR       5   1  85 E8        30.13R WCI  -8
 ***** THE ABOVE OBSERVATIONS ARE NON NWS ARE NOT QUALITY
       CONTROLLED AND MAY MIS-REPORT RAIN FOR SNOW...
$$

  *****  WEATHER ACROSS NORTHERN MINNESOTA  *****

CITY           SKY/WX    TMP DP  RH WIND       PRES   REMARKS
FLAG ISLAND    SUNNY      0 -11  60 N3        30.20R
WARROAD        CLOUDY     0  -9  65 N3        30.21R
ROSEAU         CLOUDY     1  -8  66 E5        30.21R WCI  -8
HALLOCK        CLOUDY     7  -4  61 N6        30.23R WCI  -3
THF RVR FALLS  CLOUDY     7  -2  66 N5        30.19R WCI  -2
BAUDETTE       SUNNY     -1 -13  56 NW8       30.17R WCI -15
WASKISH        CLOUDY     3  -6  66 N5        30.15R WCI  -6
CROOKSTON      CLOUDY     9   0  66 NE6       30.22R WCI  -1
STEPHEN NDAWN    N/A      7  -2  66 N5          N/A  WCI  -2
GREENBUSH NDAW   N/A      1  -6  71 NE8         N/A  WCI -12
$$
  *****  WEATHER ACROSS CENTRAL AND WEST MINNESOTA  *****

CITY           SKY/WX    TMP DP  RH WIND       PRES   REMARKS
FOSSTON        CLOUDY     7  -2  66 N6        30.14R WCI  -3
BEMIDJI        CLOUDY     7  -5  59 CALM      30.11R
PARK RAPIDS    CLOUDY    11  -5  48 NE3       30.08R
ELBOW LAKE     CLOUDY    13  -1  54 SE6       30.10R HAZE    WCI   3
WADENA         CLOUDY    10  -4  52 NE5       30.09R WCI   2
DETROIT LAKES  CLOUDY    12   0  57 CALM      30.11R
MOORHEAD       CLOUDY    12   1  62 N5        30.16R WCI   4
FERGUS FALLS   MOSUNNY   12   0  57 NE6       30.14R WCI   3
MORRIS MN      FLURRIES  12   3  67 E7        30.09R WCI   2
STAPLES        PTSUNNY    9  -6  52 NW3       30.09R
$$
  *****  WEATHER ELSEWHERE ACROSS MINNESOTA  *****

CITY           SKY/WX    TMP DP  RH WIND       PRES   REMARKS
DULUTH         SUNNY      9  -9  44 NW8       30.06R WCI  -3
INTRNTL FALLS  SUNNY      1 -11  57 N6        30.16R WCI -10
ELY            SUNNY      3  -6  66 NW3       30.08S
CLOQUET        SUNNY     10 -11  37 N5        30.07R WCI   2
WHEATON        LGT SNOW  12   7  79 E5        30.13R WCI   4
BRAINERD       CLOUDY     9  -7  48 NW5       30.10R WCI   1
HIBBING        SUNNY      3  -7  63 NW7       30.09R HAZE    WCI  -9
ALEXANDRIA     CLOUDY    11  -2  56 NE5       30.07S WCI   3
SAINT CLOUD    PTSUNNY   12  -2  53 N6        30.11R WCI   3
MINNEAPOLIS    CLOUDY    13  -3  49 NE8       30.11R WCI   2
$$

  *****  WEATHER ACROSS SOUTH DAKOTA  *****

CITY           SKY/WX    TMP DP  RH WIND       PRES   REMARKS
SIOUX FALLS    CLOUDY    17  12  80 E15       29.97R WCI   2
BROOKINGS      CLOUDY    13   8  81 E12       29.97R WCI  -1
WATERTOWN      CLOUDY    12   5  73 E10       29.98R WCI  -1
HURON          CLOUDY    24  16  71 E13       29.98R WCI  12
SISSETON         N/A     10   5  80 SE9       30.09R WCI  -3
ABERDEEN       CLOUDY    19  12  74 E9        30.03R WCI   8
MITCHELL       MOSUNNY   30  22  72 SE14      29.94R WCI  19
PIERRE         SUNNY     46  30  53 N20       29.90R
MOBRIDGE       CLOUDY    29  21  72 N8        29.97R WCI  21
RAPID CITY     SUNNY     61  21  21 NW25G40   29.93R
$$

  *****  SOME WEATHER IN NEARBY STATES *****

CITY           SKY/WX    TMP DP  RH WIND       PRES   REMARKS
GLASGOW MT     NOT AVBL
GREAT FALLS MT NOT AVBL
CHEYENNE WY    SUNNY     57  16  20 W28G37    30.08F
SCOTTSBLUFF NE SUNNY     62  25  24 W16       30.00F
OMAHA NE       MOSUNNY   37  23  56 SE8       29.92R
DES MOINES IA  CLOUDY    19  12  74 E10       30.03S WCI   7
DAVENPORT IA   MOSUNNY   18   2  49 NW9       30.06S WCI   7
CHICAGO IL     MOSUNNY   17   2  51 NW12      30.01S WCI   4
EAU CLAIRE WI  SUNNY     10  -4  53 N7        30.09R WCI  -1
LA CROSSE WI   SUNNY     11  -2  56 NW9       30.09S WCI  -2
$$

  *****  SOME NATIONAL WEATHER *****

CITY           SKY/WX    TMP DP  RH WIND       PRES   REMARKS
LA GUARDIA NY  PTSUNNY   39  19  44 W15G22    29.64R
RALEIGH NC     PTSUNNY   37  13  37 W8        29.88R
ATLANTA GA     MOSUNNY   38   8  29 NW20G25   30.09F
NEW ORLEANS LA MOSUNNY   58  22  24 W5        30.29F
OKLAHOMA CITY  SUNNY     72  30  21 SW18G28   30.00F
ALBUQUERQUE NM SUNNY     58  17  20 CALM      30.34F
SALT LAKE CITY CLOUDY    30  27  88 S5        30.45F FOG
LOS ANGELES CA MOSUNNY   82  37  20 W10       30.09F
BOISE ID       NOT AVBL
SEATTLE WA     PTSUNNY   51  46  83 SE9       30.25R
$$

*** WEATHER ACROSS MANITOBA...SASKATCHEWAN AND ONTARIO ***
                ***ONTARIO***

CITY           SKY/WX    TMP DP  RH WIND       PRES   REMARKS
GERALDTON      PTSUNNY   -6 -15  65 NW10      29.99R WCI -23
THUNDER BAY    MOSUNNY    7  -8  51 NW12G18   30.10R WCI  -9
SIOUX LOOKOUT  MOSUNNY   -2 -11  65 W8        30.13R WCI -17
TORONTO        FLURRIES  23  10  58 NW14G21   29.68R WCI  11
BIG TROUT LK   SUNNY     -9 -18  64 W14       30.12S WCI -31
PICKLE LAKE    CRYSTALS  -4 -15  59 W9        30.07S WCI -20
DRYDEN         SUNNY      1  -9  60 NW7       30.13S WCI -11
KENORA         PTSUNNY    1  -9  60 VRB3      30.16R
$$
                *** MANITOBA***

CITY           SKY/WX    TMP DP  RH WIND       PRES   REMARKS
BRANDON        FLURRIES   7   0  72 NE10      30.19R WCI  -8
DAUPHIN        SUNNY      7   0  72 NE7       30.24R WCI  -5
ISLAND LAKE    PTSUNNY   -6 -11  77 W7        30.23S WCI -20
PILOT MOUND      N/A      5   1  85 E6          N/A  WCI  -6
THE PAS        CLOUDY     3  -2  78 N6        30.27R WCI  -8
THOMPSON       FLURRIES   0  -9  65 NW9       30.26S WCI -16
WINNIPEG       PTSUNNY    3  -6  66 N8        30.27R WCI -10
LYNN LAKE      SUNNY     -4  -9  77 NW8       30.29R WCI -19
GILLAM         SUNNY    -11 -20  64 W12       30.23F WCI -31
$$
                ***SASKATCHEWAN***

CITY           SKY/WX    TMP DP  RH WIND       PRES   REMARKS
ESTEVAN        NOT AVBL
KINDERSLEY     CLOUDY    32  27  80 E8        30.12F WCI  25
LLOYDMINSTER   CLOUDY    23  19  86 E9        30.17S WCI  13
PRINCE ALBERT  NOT AVBL
REGINA         CLOUDY    23  18  80 N12       30.12R WCI  12
YORKTON        CLOUDY    10   5  79 VRB2      30.15R
N. BATTLEFORD  SUNNY     23  18  80 NE10      30.21S WCI  12
LA RONGE       FLURRIES   5  -2  72 N9        30.33R WCI  -9
SASKATOON      CLOUDY    21  18  86 NE8       30.21F WCI  12
SWIFT CURRENT  CLOUDY    28  28 100 NE10      30.10S FOG     WCI  19
$$
NOTE: THESE ARE AUTOMATED STATIONS WITH LIMITED QUALITY CONTROL
      "FAIR" INDICATES FEW OR NO CLOUDS BELOW 12,000 FEET WITH NO
      SIGNIFICANT WEATHER AND/OR OBSTRUCTIONS TO VISIBILITY.
      SKY/WX - SKY CONDITION AND SIGNIFICANT WEATHER.
      TMP - AIR TEMPERATURE.    DP   - DEWPOINT TEMPERATURE.
      RH  - RELATIVE HUMIDITY.  PRES - PRESSURE.
      HX  - HEAT INDEX.         WCI  - WIND CHILL INDEX.
$



USA.gov is the U.S. government's official web portal to all federal, state and local government web resources and services.